This demonstration page uses our WeatherBlox Daily Observations layout. Learn more.

Left ArrowRight Arrow

39.01783, -85.05884

Hourly Observations for July 24, 2018

Temp ( °F °C ) Dew Point ( °F °C ) Humidity (%) Winds ( mph kmh ) Pressure ( in mb ) Visibility ( mi km ) Precip ( " mm )
12:52 am 00:52 Mostly Clear 71 21.7 66 18.9 84 84 VRB 5 7 29.92 1013 10 16 0.00 0.00
1:52 am 01:52 Clear 67 19.4 66 18.9 97 97 Calm 29.91 1013 9 14 0.00 0.00
2:52 am 02:52 Clear 65 18.3 65 18.3 100 100 W 3 6 29.91 1013 8 13 0.00 0.00
3:52 am 03:52 Clear 66 18.9 65 18.3 96 96 WNW 7 11 29.92 1013 8 13 0.00 0.00
4:52 am 04:52 Clear with Mist and Fog 65 18.3 64 17.8 97 97 WNW 5 7 29.93 1013 6 10 0.00 0.00
5:52 am 05:52 Mostly Clear 67 19.4 65 18.3 93 93 WNW 6 9 29.94 1014 7 11 0.00 0.00
6:52 am 06:52 Mostly Cloudy with Mist and Fog 64 17.8 64 17.8 100 100 S 3 6 29.95 1014 5 8 0.00 0.00
7:52 am 07:52 Partly Cloudy with Mist and Fog 67 19.4 66 18.9 97 97 W 3 6 29.96 1015 5 8 0.00 0.00
8:26 am 08:26 Partly Cloudy with Light Rain 70 21.1 67 19.4 90 90 Calm 29.97 1015 7 11 0.00 0.03
8:37 am 08:37 Mostly Cloudy 71 21.7 67 19.4 87 87 NW 6 9 29.97 1015 9 14 0.00 0.03
8:52 am 08:52 Cloudy 72 22.2 67 19.4 84 84 NNE 6 9 29.96 1015 10 16 0.00 0.03
9:11 am 09:11 Mostly Cloudy 71 21.7 67 19.4 87 87 NNW 8 13 29.97 1015 10 16 0.00 0.00
9:52 am 09:52 Partly Cloudy 71 21.7 67 19.4 87 87 NW 9 15 29.97 1015 10 16 0.00 0.00
10:31 am 10:31 Mostly Cloudy 74 23.3 66 18.9 76 76 NNW 7 11 29.97 1015 10 16 0.00 0.00
10:52 am 10:52 Mostly Cloudy 76 24.4 66 18.9 72 72 NNW 10 17 29.98 1015 10 16 0.00 0.00
11:48 am 11:48 Mostly Cloudy 73 23 66 19 78 78 WNW 8 13 29.97 1015 10 16 0.00 0.00
11:52 am 11:52 Mostly Cloudy 74 23.3 65 18.3 74 74 NW 6 9 29.98 1015 10 16 0.00 0.00
12:45 pm 12:45 Mostly Cloudy 75 23.9 66 18.9 74 74 W 12 19 29.97 1015 10 16 0.00 0.00
12:52 pm 12:52 Mostly Cloudy 75 23.9 66 18.9 74 74 W 12 19 29.98 1015 10 16 0.00 0.00
1:12 pm 13:12 Cloudy 76 24.4 67 19.4 74 74 WSW 6 9 29.97 1015 10 16 0.00 0.00
1:52 pm 13:52 Cloudy 78 25.6 66 18.9 67 67 VRB 6 9 29.97 1015 10 16 0.00 0.00
2:52 pm 14:52 Cloudy 78 25.6 67 19.4 69 69 W 5 7 29.96 1015 10 16 0.00 0.00
3:12 pm 15:12 Cloudy 77 25 66 18.9 69 69 WNW 9 15 29.94 1014 10 16 0.00 0.00
3:52 pm 15:52 Cloudy 78 25.6 67 19.4 69 69 N 6 9 29.95 1014 10 16 0.00 0.00
4:52 pm 16:52 Mostly Cloudy 79 26.1 66 18.9 65 65 NW 6 9 29.95 1014 10 16 0.00 0.00
5:52 pm 17:52 Mostly Cloudy 79 26.1 67 19.4 67 67 NW 10 17 29.93 1014 10 16 0.00 0.00
6:52 pm 18:52 Mostly Cloudy 78 25.6 66 18.9 67 67 NNW 8 13 29.93 1014 10 16 0.00 0.00
7:52 pm 19:52 Mostly Cloudy 78 25.6 67 19.4 69 69 NNW 7 11 29.93 1014 10 16 0.00 0.00
8:52 pm 20:52 Mostly Cloudy 76 24.4 67 19.4 74 74 WNW 5 7 29.94 1014 10 16 0.00 0.00
9:52 pm 21:52 Mostly Clear 74 23.3 68 20 82 82 Calm 29.95 1014 10 16 0.00 0.00
10:52 pm 22:52 Mostly Clear 71 21.7 67 19.4 87 87 WNW 3 6 29.96 1015 10 16 0.00 0.00
11:52 pm 23:52 Clear 66 18.9 66 18.9 100 100 S 3 6 29.96 1015 10 16 0.00 0.00

Powered by AerisWeather